Location: Newark
(12.4436°N, 0.6167°W)
Time: 16:44:52
(UTC+00:00)

Vanguard 2 - Pass Details

Date: 14 December 2019
Orbit: 553 x 2938 km, 32.9° (Epoch: 21 January)

Event Time Altitude Azimuth Distance (km) Brightness Sun altitude
Rises 02:39:09 0° 291° (WNW) 5,977 - -50.0°
Reaches altitude 10° 02:43:26 10° 300° (WNW) 5,241 - -49.1°
Maximum altitude 02:57:59 36° 2° (N) 4,003 - -45.8°
Exits shadow 02:58:47 36° 7° (N) 4,016 10.9 -45.6°
Drops below altitude 10° 03:13:22 10° 63° (ENE) 5,533 12.2 -42.2°
Sets 03:18:02 0° 72° (ENE) 6,333 12.8 -41.2°
